This demonstration page uses our WeatherBlox Daily Observations layout. Learn more.

Left ArrowRight Arrow

Hourly Observations for February 9, 2015

Temp ( °F °C ) Dew Point ( °F °C ) Humidity (%) Winds ( mph kmh ) Pressure ( in mb ) Visibility ( mi km ) Precip ( " mm )
12:28 am 00:28 Cloudy with Light Rain 47 8.3 45 7.2 93 93 NNW 14 22 29.83 1010 3 4.82802 N/A
12:53 am 00:53 Cloudy with Mist and Fog 45 7.2 44 6.7 97 97 NNW 12 19 29.8 1009 3 4.82802 N/A
1:03 am 01:03 Cloudy with Mist and Fog 45 7.2 44 6.7 97 97 N 9 15 29.83 1010 3 4.82802 N/A
1:22 am 01:22 Cloudy with Mist and Fog 45 7.2 43 6.1 93 93 NNW 9 15 29.83 1010 4 6.43736 N/A
1:53 am 01:53 Cloudy with Light Rain 44 6.7 43 6.1 96 96 N 3 6 29.81 1010 2.5 4.02335 0.01 0.254
2:02 am 02:02 Cloudy with Light Rain 44 6.7 42 5.6 93 93 NE 3 6 29.83 1010 3 4.82802 N/A
2:16 am 02:16 Cloudy with Mist and Fog 44 6.7 42 5.6 93 93 N 3 6 29.83 1010 4 6.43736 N/A
2:53 am 02:53 Cloudy with Mist and Fog 43 6.1 42 5.6 97 97 NNW 5 7 29.82 1010 3 4.82802 N/A
3:44 am 03:44 Cloudy with Mist and Fog 39 3.9 37 2.8 93 93 NNW 10 17 29.85 1011 2.5 4.02335 N/A
3:51 am 03:51 Cloudy with Mist and Fog 37 3 36 2 93 93 NNW 10 17 29.85 1011 2 3.21868 N/A
3:53 am 03:53 Cloudy with Mist and Fog 38 3.3 36 2.2 93 93 NNW 12 19 29.84 1011 2 3.21868 N/A
4:36 am 04:36 Cloudy with Mist and Fog 36 2.2 34 1.1 93 93 N 13 20 29.88 1012 3 4.82802 N/A
4:53 am 04:53 Cloudy with Mist and Fog 35 1.7 34 1.1 96 96 N 10 17 29.86 1011 4 6.43736 N/A
5:53 am 05:53 Cloudy with Mist and Fog 34 1.1 32 undefined 92 92 N 9 15 29.89 1012 5 8.0467 N/A
6:53 am 06:53 Cloudy 33 0.6 30 -1.1 89 89 N 12 19 29.94 1014 9 14.48406 N/A
7:53 am 07:53 Cloudy with Mist and Fog 32 undefined 30 -1.1 92 92 N 9 15 29.95 1014 4 6.43736 N/A
8:53 am 08:53 Cloudy with Mist and Fog 31 -0.6 29 -1.7 92 92 N 9 15 29.98 1015 4 6.43736 N/A
9:53 am 09:53 Cloudy with Mist and Fog 31 -0.6 28 -2.2 89 89 N 9 15 29.99 1016 5 8.0467 N/A
10:06 am 10:06 Cloudy with Mist and Fog 31 -0.6 28 -2.2 89 89 NNE 8 13 30.06 1018 4 6.43736 N/A
10:53 am 10:53 Cloudy 30 -1.1 27 -2.8 88 88 NNE 12 19 30.01 1016 7 11.26538 N/A
11:11 am 11:11 Cloudy 30 -1.1 27 -2.8 88 88 N 8 13 30.09 1019 7 11.26538 N/A
11:50 am 11:50 Cloudy with Mist and Fog 28 -2 27 -3 93 93 N 13 20 30.09 1019 2.5 4.02335 N/A
11:53 am 11:53 Cloudy with Mist and Fog 29 -1.7 27 -2.8 92 92 N 13 20 30.03 1017 2.5 4.02335 N/A
12:00 pm 12:00 Cloudy with Mist and Fog 29 -1.7 26 -3.3 89 89 N 9 15 30.09 1019 4 6.43736 N/A
12:22 pm 12:22 Cloudy with Mist and Fog 29 -1.7 26 -3.3 89 89 NNE 10 17 30.09 1019 6 9.65604 N/A
12:53 pm 12:53 Cloudy with Mist and Fog 29 -1.7 26 -3.3 89 89 NNE 8 13 30.03 1017 6 9.65604 N/A
1:53 pm 13:53 Cloudy with Haze 29 -1.7 24 -4.4 82 82 N 13 20 30.03 1017 6 9.65604 N/A
2:25 pm 14:25 Cloudy 29 -1.7 23 -5 78 78 N 12 19 30.06 1018 9 14.48406 N/A
2:53 pm 14:53 Cloudy 30 -1.1 23 -5 75 75 N 13 20 30.03 1017 10 16.0934 N/A
3:53 pm 15:53 Cloudy 29 -1.7 22 -5.6 75 75 N 12 19 30.04 1017 7 11.26538 N/A
4:53 pm 16:53 Cloudy with Haze 28 -2.2 22 -5.6 78 78 N 10 17 30.06 1018 6 9.65604 N/A
5:53 pm 17:53 Cloudy with Haze 27 -2.8 21 -6.1 78 78 N 12 19 30.09 1019 6 9.65604 N/A
6:25 pm 18:25 Cloudy with Light Snow 27 -2.8 22 -5.6 81 81 N 9 15 30.12 1020 7 11.26538 N/A
6:48 pm 18:48 Cloudy 27 -3 21 -6 80 80 N 12 19 30.12 1020 8 12.87472 N/A
6:53 pm 18:53 Cloudy 27 -2.8 21 -6.1 78 78 N 12 19 30.11 1020 8 12.87472 N/A
7:53 pm 19:53 Cloudy 27 -2.8 21 -6.1 78 78 NNE 10 17 30.13 1020 8 12.87472 N/A
8:53 pm 20:53 Cloudy 27 -2.8 20 -6.7 75 75 N 10 17 30.14 1021 9 14.48406 N/A
9:53 pm 21:53 Cloudy 27 -2.8 20 -6.7 75 75 N 12 19 30.16 1021 8 12.87472 N/A
10:39 pm 22:39 Cloudy 26 -3.3 18 -7.8 71 71 N 12 19 30.18 1022 10 16.0934 N/A
10:53 pm 22:53 Cloudy 26 -3.3 17 -8.3 69 69 NNE 13 20 30.17 1022 10 16.0934 N/A
11:51 pm 23:51 Cloudy 27 -3 19 -7 74 74 N 6 9 30.18 1022 10 16.0934 N/A
11:53 pm 23:53 Cloudy 26 -3.3 19 -7.2 75 75 N 5 7 30.18 1022 10 16.0934 N/A

Powered by AerisWeather